Tracking 35274 objects as of 10-Sep-2026
HD Live streaming from Space Station
objects crossing your sky now

DMSP 5D-2 F11 DEB

Track DMSP 5D-2 F11 DEB now!
10-day predictions


NORAD ID: 28327
Int'l Code: 1991-082AQ
Launch date: November 28, 1991
Source: United States (US)
Launch site: AIR FORCE WESTERN TEST RANGE (AFWTR)

Note: This is SATELLITE DEBRIS
Your satellite tracking list
Your tracking list is empty




NASA's NSSDC Master Catalog

Two Line Element Set (TLE):
1 28327U 91082AQ  26251.51250094  .00004574  00000-0  11708-2 0  9993
2 28327  98.6731 346.4018 0021990  82.6092 341.6190 14.50743775688641
Source of the keplerian elements: AFSPC